Hourly Data Report for September 06, 2017

All times are specified in Local Standard Time (LST). Add 1 hour to adjust for Daylight Saving Time where and when it is observed.

KITCHENER/WATERLOO
ONTARIO

43°27'39.000" N
80°22'43.000" W
321.60 m
6144239
71368
YKF

Download Data

Hourly Data (September 2017)
Hourly Data Report for September 6, 2017
Temp Definition
°C
Dew Point Temp Definition
°C
Rel Hum Definition
%
Wind Dir Definition
10's deg

Wind Spd Definition
km/h
Visibility Definition
km
Stn Press Definition
kPa
Hmdx Definition


Wind Chill Definition


Weather Definition


TIME
00:00 Legend Double Dagger 11.0 10.6 97 29 5 16.1 97.26     LegendNANA
01:00 Legend Double Dagger 10.2 9.4 95 33 11 16.1 97.27     LegendNANA
02:00 Legend Double Dagger 8.7 8.3 97 34 5 16.1 97.26     LegendNANA
03:00 Legend Double Dagger 7.0 6.7 98   0 1.2 97.26     Fog
04:00 Legend Double Dagger 6.7 6.6 99   0 0.8 97.31     Fog
05:00 Legend Double Dagger 6.2 6.1 99 27 5 0.6 97.36     Fog
06:00 Legend Double Dagger 7.0 6.9 99 34 5 11.3 97.38     LegendNANA
07:00 Legend Double Dagger 8.8 8.7 99   0 16.1 97.42     LegendNANA
08:00 Legend Double Dagger 11.2 9.8 91   0 16.1 97.44     LegendNANA
09:00 Legend Double Dagger 14.6 10.7 77 32 5 16.1 97.46     LegendNANA
10:00 Legend Double Dagger 16.0 10.8 71 LegendMM 4 16.1 97.47     LegendNANA
11:00 Legend Double Dagger 16.9 10.0 64   0 16.1 97.43     LegendNANA
12:00 Legend Double Dagger 17.8 9.5 58 25 9 16.1 97.41     LegendNANA
13:00 Legend Double Dagger 18.4 8.6 52 27 5 16.1 97.41     LegendNANA
14:00 Legend Double Dagger 18.7 8.4 51 22 17 16.1 97.39     LegendNANA
15:00 Legend Double Dagger 19.1 9.0 51 26 26 16.1 97.38     LegendNANA
16:00 Legend Double Dagger 17.2 10.1 63 29 13 16.1 97.38     LegendNANA
17:00 Legend Double Dagger 15.1 11.5 79 2 8 16.1 97.40     Rain
18:00 Legend Double Dagger 14.8 11.3 79 31 9 16.1 97.40     LegendNANA
19:00 Legend Double Dagger 12.4 11.5 94 7 5 16.1 97.43     LegendNANA
20:00 Legend Double Dagger 11.6 11.3 98   0 16.1 97.46     LegendNANA
21:00 Legend Double Dagger 10.2 9.9 98 33 5 16.1 97.44     LegendNANA
22:00 Legend Double Dagger 10.2 9.4 94   0 16.1 97.43     LegendNANA
23:00 Legend Double Dagger 10.1 9.7 97 32 5 16.1 97.42     LegendNANA

Notes on Data Quality.

Legend

  • E = Estimated
  • M = Missing
  • NA = Not Available
  • ‡ = Partner data that is not subject to review by the National Climate Archives
Date modified: